This demonstration page uses our WeatherBlox Daily Observations layout. Learn more.

Left ArrowRight Arrow

Hourly Observations for July 22, 2022

Temp ( °F °C ) Dew Point ( °F °C ) Humidity (%) Winds ( mph kmh ) Pressure ( in mb ) Visibility ( mi km ) Precip ( " mm )
12:59 am 00:59 Partly Cloudy 75 23.9 71 21.7 88 88 SSW 9 15 29.88 1012 10 16 0.00 0.00
1:59 am 01:59 Mostly Clear 75 23.9 71 21.7 88 88 SW 9 15 29.88 1012 10 16 0.00 0.00
2:59 am 02:59 Mostly Clear 75 23.9 72 22.2 90 90 SW 9 15 29.88 1012 10 16 0.00 0.00
3:59 am 03:59 Mostly Clear 75 23.9 72 22.2 90 90 SW 6 9 29.89 1012 10 16 0.00 0.00
4:59 am 04:59 Mostly Clear 75 23.9 72 22.2 90 90 WSW 7 11 29.90 1013 10 16 0.00 0.00
5:59 am 05:59 Mostly Clear 75 23.9 72 22.2 90 90 WSW 7 11 29.92 1013 10 16 0.00 0.00
6:59 am 06:59 Partly Cloudy 75 23.9 73 22.8 94 94 WSW 9 15 29.93 1014 9 14 0.00 0.00
7:59 am 07:59 Partly Cloudy 77 25 74 23.3 90 90 W 7 11 29.96 1015 9 14 0.00 0.00
8:59 am 08:59 Partly Cloudy 81 27.2 73 22.8 77 77 W 6 9 29.97 1015 9 14 0.00 0.00
9:59 am 09:59 Mostly Cloudy 82 27.8 73 22.8 74 74 SW 6 9 29.98 1015 9 14 0.00 0.00
10:59 am 10:59 Mostly Cloudy 84 28.9 74 23.3 72 72 W 7 11 30.00 1016 9 14 0.00 0.00
11:59 am 11:59 Mostly Cloudy 86 30 71 21.7 61 61 Calm 30.00 1016 9 14 0.00 0.00
12:59 pm 12:59 Mostly Cloudy 90 32.2 72 22.2 56 56 N 7 11 29.99 1016 9 14 0.00 0.00
1:59 pm 13:59 Mostly Cloudy 90 32.2 68 20 48 48 SW 7 11 30.00 1016 9 14 0.00 0.00
2:59 pm 14:59 Mostly Cloudy 90 32.2 68 20 48 48 VRB 7 11 29.98 1015 9 14 0.00 0.00
3:59 pm 15:59 Mostly Cloudy 91 32.8 68 20 47 47 W 7 11 29.98 1015 9 14 0.00 0.00
4:59 pm 16:59 Mostly Cloudy 91 32.8 68 20 47 47 VRB 3 6 29.97 1015 9 14 0.00 0.00
5:59 pm 17:59 Mostly Cloudy 90 32.2 68 20 48 48 WNW 9 15 29.97 1015 9 14 0.00 0.00
6:59 pm 18:59 Mostly Cloudy 90 32.2 67 19.4 47 47 WNW 7 11 29.98 1015 9 14 0.00 0.00
7:59 pm 19:59 Mostly Cloudy 88 31.1 72 22.2 59 59 N 6 9 30.00 1016 8 13 0.00 0.00
8:59 pm 20:59 Partly Cloudy 85 29.4 72 22.2 65 65 W 3 6 30.01 1016 9 14 0.00 0.00
9:59 pm 21:59 Partly Cloudy 83 28.3 72 22.2 70 70 Calm 30.03 1017 9 14 0.00 0.00
10:59 pm 22:59 Partly Cloudy 82 27.8 72 22.2 72 72 SSW 3 6 30.02 1017 9 14 0.00 0.00
11:59 pm 23:59 Partly Cloudy 81 27.2 72 22.2 74 74 SSW 6 9 30.03 1017 8 13 0.00 0.00

Powered by AerisWeather